• In Latvia
  • List of Countries
  • For 7 days
  • Water Temperature
  • Satellite Maps
  • Weather Map
  • Weather Widgets
  • user-avatar
    Login

    Hourly Weather Limbazi

    Today, 24 May, Thursday

    Time Temperature Precipitation Wind Pressure Humidity
    00:00 +11°C° 0 mm 3 mps 762 mmHg 76%
    01:00 +10°C° 0 mm 3 mps 762 mmHg 77%
    02:00 +10°C° 0 mm 2 mps 762 mmHg 77%
    03:00 +10°C° 0 mm 2 mps 762 mmHg 78%
    04:00 +10°C° 0 mm 2 mps 763 mmHg 79%
    05:00 +10°C° 0 mm 2 mps 763 mmHg 80%
    06:00 +13°C° 0 mm 2 mps 763 mmHg 74%
    07:00 +15°C° 0 mm 2 mps 763 mmHg 68%
    08:00 +17°C° 0 mm 3 mps 763 mmHg 62%
    09:00 +18°C° 0 mm 3 mps 763 mmHg 56%
    10:00 +20°C° 0 mm 3 mps 763 mmHg 50%
    11:00 +22°C° 0 mm 4 mps 763 mmHg 45%
    12:00 +22°C° 0 mm 4 mps 763 mmHg 43%
    13:00 +22°C° 0 mm 4 mps 763 mmHg 42%
    14:00 +23°C° 0 mm 4 mps 763 mmHg 40%
    15:00 +22°C° 0 mm 4 mps 763 mmHg 42%
    16:00 +22°C° 0 mm 4 mps 762 mmHg 44%
    17:00 +22°C° 0 mm 4 mps 762 mmHg 46%
    18:00 +20°C° 0 mm 4 mps 763 mmHg 54%
    19:00 +19°C° 0 mm 3 mps 763 mmHg 62%
    20:00 +17°C° 0 mm 3 mps 763 mmHg 70%
    21:00 +16°C° 0 mm 3 mps 763 mmHg 73%
    22:00 +14°C° 0 mm 3 mps 763 mmHg 76%
    23:00 +13°C° 0 mm 3 mps 764 mmHg 79%

    Tomorrow, 25 May, Friday

    Time Temperature Precipitation Wind Pressure Humidity
    00:00 +12°C° 0 mm 3 mps 764 mmHg 78%
    01:00 +12°C° 0 mm 3 mps 764 mmHg 77%
    02:00 +11°C° 0 mm 3 mps 764 mmHg 76%
    03:00 +11°C° 0 mm 3 mps 764 mmHg 75%
    04:00 +11°C° 0 mm 3 mps 764 mmHg 73%
    05:00 +11°C° 0 mm 3 mps 765 mmHg 71%
    06:00 +13°C° 0 mm 3 mps 765 mmHg 66%
    07:00 +14°C° 0 mm 3 mps 765 mmHg 62%
    08:00 +17°C° 0 mm 3 mps 765 mmHg 57%
    09:00 +19°C° 0 mm 3 mps 765 mmHg 53%
    10:00 +21°C° 0 mm 3 mps 765 mmHg 48%
    11:00 +22°C° 0 mm 3 mps 765 mmHg 44%
    12:00 +24°C° 0 mm 3 mps 765 mmHg 42%
    13:00 +24°C° 0 mm 3 mps 765 mmHg 40%
    14:00 +25°C° 0 mm 2 mps 765 mmHg 38%
    15:00 +25°C° 0 mm 2 mps 765 mmHg 40%
    16:00 +25°C° 0 mm 3 mps 765 mmHg 41%
    17:00 +25°C° 0 mm 3 mps 765 mmHg 43%
    18:00 +22°C° 0 mm 3 mps 765 mmHg 52%
    19:00 +20°C° 0 mm 2 mps 765 mmHg 61%
    20:00 +19°C° 0 mm 2 mps 765 mmHg 71%
    21:00 +18°C° 0 mm 2 mps 765 mmHg 74%
    22:00 +17°C° 0 mm 3 mps 766 mmHg 78%
    23:00 +14°C° 0 mm 3 mps 766 mmHg 82%

    Day after tomorrow, 26 May, Saturday

    Time Temperature Precipitation Wind Pressure Humidity
    00:00 +14°C° 0 mm 3 mps 766 mmHg 81%
    01:00 +13°C° 0 mm 3 mps 766 mmHg 81%
    02:00 +13°C° 0 mm 3 mps 766 mmHg 80%
    03:00 +13°C° 0 mm 3 mps 766 mmHg 80%
    04:00 +13°C° 0 mm 3 mps 767 mmHg 80%
    05:00 +12°C° 0 mm 3 mps 767 mmHg 80%
    06:00 +14°C° 0 mm 3 mps 767 mmHg 73%
    07:00 +17°C° 0 mm 3 mps 767 mmHg 67%
    08:00 +19°C° 0 mm 3 mps 767 mmHg 60%
    09:00 +20°C° 0 mm 3 mps 767 mmHg 55%
    10:00 +22°C° 0 mm 3 mps 767 mmHg 49%
    11:00 +24°C° 0 mm 3 mps 767 mmHg 44%
    12:00 +24°C° 0 mm 2 mps 767 mmHg 43%
    13:00 +25°C° 0 mm 2 mps 766 mmHg 42%
    14:00 +25°C° 0 mm 2 mps 766 mmHg 41%
    15:00 +25°C° 0 mm 2 mps 766 mmHg 42%
    16:00 +25°C° 0 mm 2 mps 766 mmHg 44%
    17:00 +25°C° 0 mm 2 mps 766 mmHg 45%
    18:00 +23°C° 0 mm 2 mps 766 mmHg 54%
    19:00 +22°C° 0 mm 1 mps 765 mmHg 62%
    20:00 +20°C° 0 mm 1 mps 765 mmHg 70%
    21:00 +19°C° 0 mm 1 mps 766 mmHg 73%
    22:00 +18°C° 0 mm 1 mps 766 mmHg 76%
    23:00 +15°C° 0 mm 2 mps 766 mmHg 79%

    27 May, Sunday

    Time Temperature Precipitation Wind Pressure Humidity
    00:00 +15°C° 0 mm 2 mps 766 mmHg 80%
    01:00 +15°C° 0 mm 2 mps 766 mmHg 82%
    02:00 +14°C° 0 mm 2 mps 766 mmHg 84%
    03:00 +14°C° 0 mm 2 mps 766 mmHg 84%
    04:00 +14°C° 0 mm 2 mps 766 mmHg 84%
    05:00 +14°C° 0 mm 2 mps 766 mmHg 85%
    06:00 +16°C° 0 mm 2 mps 766 mmHg 78%
    07:00 +17°C° 0 mm 2 mps 766 mmHg 71%
    08:00 +20°C° 0 mm 1 mps 766 mmHg 63%
    09:00 +22°C° 0 mm 1 mps 766 mmHg 58%
    10:00 +24°C° 0 mm 1 mps 766 mmHg 53%
    11:00 +25°C° 0 mm 1 mps 767 mmHg 48%
    12:00 +26°C° 0 mm 1 mps 766 mmHg 46%
    13:00 +26°C° 0 mm 1 mps 766 mmHg 45%
    14:00 +27°C° 0 mm 1 mps 766 mmHg 44%
    15:00 +26°C° 0 mm 2 mps 766 mmHg 46%
    16:00 +25°C° 0 mm 2 mps 765 mmHg 47%
    17:00 +25°C° 0 mm 2 mps 765 mmHg 49%
    18:00 +23°C° 0 mm 2 mps 765 mmHg 57%
    19:00 +21°C° 0 mm 2 mps 765 mmHg 65%
    20:00 +19°C° 0 mm 2 mps 765 mmHg 73%
    21:00 +18°C° 0 mm 2 mps 765 mmHg 75%
    22:00 +17°C° 0 mm 2 mps 766 mmHg 78%
    23:00 +16°C° 0 mm 2 mps 766 mmHg 81%

    28 May, Monday

    Time Temperature Precipitation Wind Pressure Humidity
    00:00 +16°C° 0 mm 2 mps 766 mmHg 83%
    01:00 +15°C° 0 mm 2 mps 766 mmHg 85%
    02:00 +15°C° 0 mm 2 mps 766 mmHg 87%
    03:00 +15°C° 0 mm 2 mps 766 mmHg 86%
    04:00 +15°C° 0 mm 2 mps 767 mmHg 86%
    05:00 +15°C° 0 mm 2 mps 767 mmHg 86%
    06:00 +17°C° 0 mm 2 mps 767 mmHg 78%
    07:00 +20°C° 0 mm 1 mps 767 mmHg 71%
    08:00 +22°C° 0 mm 1 mps 767 mmHg 64%
    09:00 +24°C° 0 mm 1 mps 767 mmHg 58%
    10:00 +25°C° 0 mm 1 mps 767 mmHg 52%
    11:00 +27°C° 0 mm 1 mps 767 mmHg 45%
    12:00 +27°C° 0 mm 1 mps 767 mmHg 45%
    13:00 +26°C° 0 mm 2 mps 767 mmHg 45%
    14:00 +26°C° 0 mm 2 mps 767 mmHg 45%
    15:00 +26°C° 0 mm 2 mps 766 mmHg 46%
    16:00 +26°C° 0 mm 2 mps 766 mmHg 46%
    17:00 +26°C° 0 mm 2 mps 766 mmHg 46%
    18:00 +25°C° 0 mm 2 mps 766 mmHg 54%
    19:00 +23°C° 0 mm 2 mps 766 mmHg 61%
    20:00 +20°C° 0 mm 2 mps 766 mmHg 69%
    21:00 +19°C° 0 mm 2 mps 766 mmHg 70%
    22:00 +18°C° 0 mm 2 mps 766 mmHg 71%
    23:00 +17°C° 0 mm 3 mps 766 mmHg 73%

    29 May, Tuesday

    Time Temperature Precipitation Wind Pressure Humidity
    00:00 +16°C° 0 mm 2 mps 766 mmHg 73%
    01:00 +16°C° 0 mm 2 mps 767 mmHg 74%
    02:00 +15°C° 0 mm 2 mps 767 mmHg 75%
    03:00 +15°C° 0 mm 2 mps 766 mmHg 75%
    04:00 +15°C° 0 mm 2 mps 766 mmHg 76%
    05:00 +15°C° 0 mm 2 mps 766 mmHg 77%
    06:00 +17°C° 0 mm 2 mps 766 mmHg 70%
    07:00 +20°C° 0 mm 1 mps 766 mmHg 64%
    08:00 +22°C° 0 mm 1 mps 766 mmHg 57%
    09:00 +24°C° 0 mm 1 mps 765 mmHg 53%
    10:00 +26°C° 0 mm 1 mps 765 mmHg 49%
    11:00 +27°C° 0 mm 1 mps 765 mmHg 45%
    12:00 +28°C° 0 mm 1 mps 765 mmHg 44%
    13:00 +28°C° 0 mm 1 mps 764 mmHg 43%
    14:00 +28°C° 0 mm 1 mps 764 mmHg 41%
    15:00 +28°C° 0 mm 1 mps 763 mmHg 44%
    16:00 +27°C° 0 mm 2 mps 763 mmHg 46%
    17:00 +27°C° 0 mm 2 mps 762 mmHg 48%
    18:00 +25°C° 0 mm 1 mps 762 mmHg 56%
    19:00 +23°C° 0 mm 1 mps 761 mmHg 63%
    20:00 +22°C° 0 mm 1 mps 761 mmHg 71%
    21:00 +21°C° 0 mm 1 mps 761 mmHg 74%
    22:00 +19°C° 0 mm 1 mps 761 mmHg 76%
    23:00 +18°C° 0 mm 1 mps 761 mmHg 78%
    Show more